Location: Peebles
(55.6412°N, 3.1714°W)
Time: 16:37:55
(UTC+01:00)

METEOR 2-8 DEB - Visible Passes

Search period start: 03 July 2022 00:00
Search period end: 13 July 2022 00:00
Orbit: 790 x 832 km, 82.5° (Epoch: 01 July)

Date Brightness Start Highest point End Pass type
(mag) Time Alt. Az. Time Alt. Az. Time Alt. Az.
03 Jul ? 01:23:27 10° W 01:26:15 14° NW 01:29:02 10° NNW visible
03 Jul ? 23:13:58 10° SSW 23:19:21 75° WNW 23:24:44 10° N visible
04 Jul ? 00:58:45 10° W 01:02:17 17° NW 01:05:49 10° NNW visible
04 Jul ? 22:50:18 10° S 22:55:41 85° E 23:01:04 10° NNE visible
05 Jul ? 00:34:17 10° WSW 00:38:22 22° WNW 00:42:27 10° N visible
06 Jul ? 00:09:58 10° WSW 00:14:29 27° WNW 00:19:00 10° N visible
06 Jul ? 23:45:48 10° SW 23:50:38 33° WNW 23:55:29 10° N visible
07 Jul ? 23:21:45 10° SW 23:26:51 42° WNW 23:31:55 10° N visible
08 Jul ? 01:09:10 10° WNW 01:10:21 11° NW 01:11:32 10° NNW visible
08 Jul ? 22:57:49 10° SSW 23:03:05 54° WNW 23:08:19 10° N visible
09 Jul ? 00:43:47 10° WNW 00:46:19 13° NW 00:48:51 10° NNW visible
10 Jul ? 00:18:59 10° W 00:22:20 16° NW 00:25:41 10° NNW visible
10 Jul ? 23:54:27 10° WSW 23:58:23 20° WNW 00:02:20 10° N visible
11 Jul ? 23:30:05 10° WSW 23:34:29 25° WNW 23:38:53 10° N visible
12 Jul ? 23:05:52 10° SW 23:10:36 32° WNW 23:15:22 10° N visible
